EHI
16 31 39 34 29 29 29 31 33 34 37 41 43 43 41 37 35 33 30 26 22 17 13 13 12 11 10 7 4 2 3 4 4 3 2 1 0 0 0 0 0 1 3
20 33 41 36 30 28 29 32 35 36 38 42 45 47 46 42 37 35 32 27 22 17 13 13 12 12 11 7 4 3 4 4 3 2 1 0 0 0 0 0 0 1 2
26 34 40 38 32 28 29 33 37 39 40 42 46 49 49 44 39 37 33 29 23 17 14 13 12 11 10 8 5 4 5 5 2 1 0 0 0 0 0 0 0 1 1
30 35 40 40 34 29 30 34 37 40 40 41 43 45 43 39 36 35 32 29 24 17 14 13 11 9 8 7 5 4 6 6 2 0 0 0 1 3 2 0 0 0 0
29 34 40 41 35 30 31 34 37 39 39 37 36 35 34 31 31 31 30 27 22 16 12 12 11 9 8 7 5 4 4 4 2 0 0 0 3 6 4 1 0 0 0
23 28 36 38 33 29 29 32 35 36 35 32 29 29 28 27 27 28 27 24 19 14 10 9 10 11 10 9 6 4 3 3 1 0 0 0 4 8 7 3 1 1 1
18 22 30 34 31 27 28 29 30 31 30 29 28 27 26 25 25 24 23 20 16 12 9 8 10 12 12 11 10 7 5 3 1 0 0 0 4 9 8 4 2 2 2
17 21 27 29 28 27 28 29 28 27 27 28 29 29 27 25 23 20 18 16 13 10 9 8 10 12 12 12 12 11 8 5 2 1 0 1 5 8 7 4 3 3 3
16 19 23 25 25 25 27 29 28 27 28 28 28 28 27 24 19 15 14 12 10 9 8 8 9 9 9 10 12 12 10 7 3 1 0 2 5 7 5 3 3 3 4
16 17 20 22 22 21 23 25 25 25 26 27 26 25 22 16 12 10 10 10 9 8 8 7 6 5 5 6 8 10 9 7 4 1 1 3 6 6 4 4 4 4 4
18 18 19 20 19 17 18 19 19 18 21 22 21 19 14 8 6 6 7 9 9 7 6 5 4 4 4 4 5 7 8 7 4 2 2 4 5 4 3 4 5 5 5
19 18 18 19 19 17 14 13 13 14 17 18 16 14 11 8 7 7 9 11 9 5 3 2 2 3 4 3 3 5 7 5 3 3 4 5 4 2 2 5 7 7 7
15 15 17 17 17 16 14 11 12 15 18 19 18 16 15 14 11 11 13 13 9 4 2 2 3 4 4 3 2 2 4 3 2 3 4 5 3 1 2 5 8 9 10
10 12 14 14 13 15 14 12 13 17 19 20 21 21 19 18 15 13 14 13 9 6 4 4 5 6 5 3 1 1 1 1 1 1 3 3 2 1 2 4 5 6 8
6 9 11 12 12 13 13 12 12 15 17 17 19 21 21 19 17 15 16 15 10 6 6 6 7 7 7 4 1 0 0 1 1 1 1 1 1 1 1 1 1 2 3
4 6 9 11 11 12 12 11 10 12 14 14 16 19 20 19 18 18 19 17 12 7 6 6 6 7 6 3 1 0 0 1 1 1 1 0 0 0 0 0 0 0 0
6 7 11 12 11 12 13 11 10 10 11 12 14 16 17 17 17 19 20 17 13 10 9 8 7 7 5 3 2 1 1 1 2 2 1 0 0 0 0 0 0 0 0
9 11 13 14 13 14 15 14 13 11 10 11 13 15 15 15 16 17 17 15 12 11 10 9 8 7 5 4 4 5 4 2 2 2 1 0 0 0 0 1 1 0 0
9 10 12 15 16 15 15 15 14 13 11 10 12 13 13 14 14 14 14 12 10 10 10 9 9 7 6 5 5 7 7 5 4 2 1 0 0 0 0 1 1 0 0
7 8 11 14 17 17 15 14 14 12 11 10 11 11 11 13 14 14 14 12 10 9 9 9 9 8 7 7 6 6 8 7 6 4 2 1 1 0 0 1 1 0 0
8 8 11 14 16 16 14 14 13 12 11 10 10 10 10 12 13 15 15 13 12 9 8 8 9 9 9 9 8 7 6 6 5 5 4 3 2 1 0 0 0 0 0
10 9 10 12 15 16 15 15 14 13 11 10 9 9 10 11 12 13 13 13 12 9 6 6 6 8 8 9 10 7 5 4 3 4 4 3 3 2 1 0 0 0 0
9 8 7 9 13 15 15 14 13 11 10 9 8 9 9 9 10 10 10 11 10 7 5 5 6 6 7 8 9 8 5 3 2 2 2 3 3 2 1 0 0 0 0
8 7 6 6 8 11 11 10 9 9 8 6 7 7 8 8 8 8 7 7 7 5 3 4 5 5 6 7 8 7 5 4 2 2 2 2 2 2 1 1 1 0 0
7 6 4 4 5 6 6 6 7 8 7 5 5 6 7 6 6 5 4 5 5 3 2 3 4 5 5 5 5 6 6 5 4 3 2 2 2 2 2 2 2 1 1
6 4 2 2 3 4 4 4 6 9 7 6 6 6 5 5 4 4 2 2 2 1 1 3 4 4 4 4 4 5 5 5 5 4 3 4 3 2 3 3 2 1 1
Wind_Speed
7 11 14 11 10 10 9 10 10 10 10 10 11 11 11 12 11 12 12 12 11 11 11 11 10 10 9 9 8 8 8 7 7 6 6 6 6 6 6 6 6 7 10
8 11 14 11 11 10 10 10 10 10 10 10 11 11 11 11 11 11 11 11 11 10 10 10 10 9 9 9 8 8 8 7 7 6 6 8 8 7 6 5 4 2 8
9 12 13 10 10 10 10 10 10 9 10 10 11 11 11 11 11 11 10 10 10 9 9 10 9 9 9 8 8 8 8 7 7 6 7 7 9 9 6 5 4 4 5
9 11 12 12 10 10 10 10 10 10 10 10 10 11 11 10 10 10 10 9 9 9 9 9 9 9 8 8 8 7 7 7 7 7 8 6 6 10 7 6 5 6 6
9 10 12 12 10 9 9 9 10 10 10 10 10 10 10 9 9 9 10 10 9 9 9 9 9 8 8 8 8 7 7 7 7 10 7 5 5 9 7 6 6 7 7
9 10 12 11 10 9 9 9 9 9 9 9 9 9 9 9 9 9 9 9 8 8 9 9 9 8 8 8 8 7 7 7 9 9 6 5 5 8 7 6 7 7 8
7 8 11 9 8 8 9 8 7 7 8 8 8 8 7 7 8 8 8 8 8 8 8 8 8 8 8 8 8 7 7 7 9 7 6 5 3 7 6 6 6 6 7
6 7 10 10 8 8 8 8 7 7 6 6 6 6 6 6 6 6 7 7 7 7 8 8 8 7 7 8 8 8 8 8 9 6 5 5 4 5 5 5 6 6 7
5 5 7 9 8 8 7 6 6 6 6 6 5 5 5 6 6 6 6 6 6 7 7 8 8 8 8 8 9 8 8 9 9 5 6 4 6 6 6 6 6 6 7
4 4 5 6 6 7 8 7 6 6 5 5 5 6 6 7 7 7 7 6 6 7 7 8 9 9 9 9 9 9 9 10 9 7 5 4 7 6 6 6 6 6 7
3 3 4 4 4 4 5 7 7 7 7 6 7 7 7 6 7 7 6 5 6 7 7 8 9 9 10 11 10 10 10 7 7 5 4 4 6 6 7 7 6 6 7
3 2 2 3 4 4 3 4 4 5 5 5 4 5 5 3 3 3 5 5 5 6 8 9 9 10 11 7 10 11 7 7 6 5 3 5 5 7 8 7 7 7 7
2 2 1 2 2 3 2 2 2 2 3 4 4 4 3 3 3 3 3 5 5 7 6 7 10 7 6 4 5 6 5 6 4 4 4 7 7 8 8 8 7 8 8
1 1 0 1 2 2 1 1 2 2 2 2 3 3 3 2 3 2 2 2 3 3 3 4 4 6 5 6 6 6 6 5 4 4 4 8 7 8 8 8 8 8 8
1 1 1 1 1 2 2 1 1 1 2 2 2 2 2 3 3 3 2 2 3 3 4 4 4 5 5 6 6 6 6 6 6 5 3 8 8 8 8 9 9 9 9
1 1 1 1 2 2 2 2 2 2 2 2 2 2 3 3 3 3 3 3 3 3 3 3 4 4 4 4 5 6 6 6 5 6 5 6 8 8 8 9 8 8 9
1 1 1 2 2 3 3 3 3 2 2 2 2 2 3 4 3 4 3 3 3 3 3 4 4 4 4 5 6 6 5 6 5 5 6 5 6 9 9 9 8 9 9
2 2 2 2 2 3 3 3 2 2 2 2 2 2 3 4 4 4 3 3 3 3 3 3 4 4 4 5 5 5 5 5 6 6 6 5 5 5 8 9 9 8 9
2 2 2 2 2 3 3 3 3 2 2 2 2 2 3 4 4 4 3 3 4 4 4 4 3 4 4 4 5 5 5 5 6 6 6 6 5 5 5 7 10 10 10
2 2 2 2 2 2 2 2 2 2 2 2 2 2 3 3 4 5 4 4 4 3 4 3 4 4 4 4 5 4 5 5 5 5 6 6 5 6 6 6 6 8 11
2 1 1 1 1 1 1 2 2 2 2 2 2 2 3 3 4 5 4 4 4 4 4 5 5 5 4 3 4 5 5 6 6 6 6 6 6 6 6 6 6 5 6
3 2 1 1 1 1 1 2 2 3 3 2 2 2 3 4 4 4 5 5 5 4 5 5 4 4 4 4 4 3 4 5 6 7 6 6 6 5 6 7 6 6 6
3 3 2 2 1 2 2 2 2 2 3 2 3 3 3 4 4 5 5 5 5 5 4 4 5 6 5 4 4 4 4 4 2 5 7 6 6 5 5 5 7 7 7
3 2 2 2 2 2 3 3 3 3 3 3 3 2 3 3 4 4 5 5 5 4 4 5 5 5 5 5 4 4 5 3 3 3 5 6 6 6 6 6 6 6 6
3 2 2 2 2 2 3 3 4 3 3 2 2 2 3 2 3 3 4 4 4 4 4 4 4 5 5 5 5 4 4 4 6 5 4 4 4 5 5 5 4 4 5
3 3 2 2 2 2 3 3 3 3 3 3 3 2 2 2 2 2 3 3 4 4 4 5 5 5 5 5 5 5 5 5 5 5 5 5 4 4 4 4 4 4 4
Wind_Direction
147 138 139 151 149 148 147 146 144 145 147 149 152 154 154 154 153 155 156 154 153 152 153 151 151 151 152 152 151 150 150 147 145 148 155 158 158 158 156 160 184 173 134
140 137 140 148 150 150 151 150 147 150 150 152 154 156 156 156 156 155 158 158 158 159 159 159 159 158 157 157 156 156 156 156 158 165 172 175 167 167 172 180 212 109 128
136 138 147 147 150 152 153 154 153 152 153 155 157 158 159 160 160 158 158 160 163 164 165 166 166 166 165 164 163 163 164 166 170 177 196 203 167 164 178 187 181 171 157
138 145 150 145 152 154 155 157 156 155 157 157 158 160 162 162 162 163 164 164 168 171 170 171 173 173 173 171 170 170 172 176 181 194 210 202 185 153 175 190 187 188 181
142 147 140 151 155 156 155 155 158 157 159 160 162 164 164 165 166 168 171 171 172 176 178 177 179 179 179 178 177 177 179 185 193 218 219 205 197 142 171 192 195 194 189
146 150 140 155 158 156 154 153 156 157 158 163 166 168 168 170 173 175 177 178 178 180 184 186 185 187 187 186 187 187 189 197 215 219 212 214 201 144 174 195 198 198 198
144 146 141 150 153 155 154 155 156 156 155 159 163 167 172 176 179 181 182 184 186 187 189 192 193 194 196 197 195 193 196 208 236 226 213 213 175 134 173 194 199 204 201
139 144 136 147 152 155 158 158 159 161 160 160 160 164 168 173 180 185 188 191 195 194 194 198 200 203 204 204 199 200 205 223 229 230 217 208 132 145 186 202 206 209 206
135 138 145 154 158 161 157 154 160 160 160 162 162 165 171 176 183 188 194 199 203 202 201 205 206 210 212 209 206 208 212 225 245 224 219 210 137 170 201 209 210 211 208
130 139 148 157 161 168 161 155 159 160 159 165 168 175 182 185 190 196 200 196 208 210 212 214 214 214 217 216 211 209 213 223 234 227 218 173 149 186 206 211 211 211 209
125 144 151 162 164 174 166 155 167 170 168 179 177 180 199 205 199 196 200 193 215 220 223 222 217 217 217 211 210 210 217 226 222 230 227 133 158 197 212 216 216 214 213
126 148 157 176 171 179 175 161 182 187 175 194 188 194 208 213 224 224 154 192 221 227 228 225 221 219 226 214 198 204 218 224 228 221 190 146 183 209 215 221 222 218 217
130 148 167 189 191 191 175 174 190 201 182 192 189 204 218 227 216 221 199 188 208 220 226 209 213 219 220 223 223 211 218 228 226 223 178 162 195 217 221 225 228 226 223
129 161 247 228 182 189 183 177 208 210 199 202 180 214 218 228 234 228 231 229 222 219 228 234 223 217 222 229 231 224 216 224 231 232 178 168 198 218 225 230 234 232 227
7 263 242 206 169 164 175 223 208 231 225 201 205 205 238 242 240 235 237 243 246 232 217 228 231 221 227 224 219 220 224 226 232 234 192 176 197 217 228 232 235 235 230
270 245 217 200 184 182 191 207 215 225 226 228 210 212 235 249 252 253 243 241 248 248 247 241 233 226 223 225 223 220 228 229 225 232 230 192 191 210 227 231 233 233 229
253 229 219 200 186 194 208 219 219 223 229 227 207 214 232 244 245 249 253 246 254 259 247 241 233 227 222 218 221 221 224 225 222 226 233 232 210 199 211 223 227 229 230
264 227 228 222 197 195 202 228 233 234 238 241 228 221 235 249 252 255 259 258 258 252 247 240 234 231 227 227 225 222 219 213 219 225 231 228 235 226 202 204 218 223 228
296 258 239 235 224 221 212 221 230 229 237 243 244 247 252 253 252 255 259 258 254 250 246 249 237 238 232 232 234 223 225 222 216 221 228 234 236 244 239 193 206 216 223
312 281 258 237 227 237 229 225 231 227 230 240 249 246 250 252 254 255 247 240 246 248 248 245 245 241 242 231 240 235 233 235 230 221 225 227 230 236 240 239 223 210 211
327 316 309 282 197 229 234 248 249 248 251 251 249 242 245 256 256 252 257 241 238 239 249 249 248 238 236 232 239 235 231 229 229 226 228 233 230 234 239 240 244 243 216
342 329 308 304 234 239 236 255 258 276 270 263 263 245 238 236 248 246 249 251 241 236 235 241 243 251 237 225 242 247 238 218 215 223 222 224 234 236 237 239 242 240 248
343 337 326 318 295 268 249 242 249 250 254 251 252 246 242 237 241 250 251 253 247 243 232 231 234 240 244 234 235 251 254 247 223 214 221 228 232 238 243 246 238 237 240
339 340 331 323 311 287 266 256 258 260 266 272 267 258 250 244 251 252 249 247 249 248 235 234 226 233 239 242 230 241 261 282 259 238 219 217 225 233 239 246 243 235 237
348 352 356 350 327 303 280 266 258 269 279 276 272 257 259 248 246 250 250 248 246 244 239 243 240 237 238 245 246 241 240 234 240 252 253 241 235 232 230 233 244 245 242
355 357 355 4 340 312 287 287 281 287 293 296 291 275 260 253 247 250 248 249 246 244 240 241 241 236 242 245 249 248 243 242 239 243 250 246 247 244 236 234 239 238 241